Waldport Weather Center

Moon Phase Calendar



Online Cameras

 


      

Current Conditions in Waldport
5/11/2021 9:20:54 PM

50°F
Feels Like 49
Clear
Humidity
87%
Pressure
30.15"
Wind
10.7 mph (N)
Dew Point
46°F
UV Index
0/10 (Low)
Visibility
6 mi

Hourly Forecast

Date & Time Tue, May 11
9:00 PM
Tue, May 11
10:00 PM
Tue, May 11
11:00 PM
Wed, May 12
12:00 AM
Wed, May 12
1:00 AM
Wed, May 12
2:00 AM
Wed, May 12
3:00 AM
Wed, May 12
4:00 AM
Wed, May 12
5:00 AM
Wed, May 12
6:00 AM
Wed, May 12
7:00 AM
Wed, May 12
8:00 AM
Wed, May 12
9:00 AM
Wed, May 12
10:00 AM
Wed, May 12
11:00 AM
Wed, May 12
12:00 PM
Wed, May 12
1:00 PM
Wed, May 12
2:00 PM
Wed, May 12
3:00 PM
Wed, May 12
4:00 PM
Wed, May 12
5:00 PM
Wed, May 12
6:00 PM
Wed, May 12
7:00 PM
Wed, May 12
8:00 PM
Wed, May 12
9:00 PM
Wed, May 12
10:00 PM
Wed, May 12
11:00 PM
Thu, May 13
12:00 AM
Thu, May 13
1:00 AM
Thu, May 13
2:00 AM
Thu, May 13
3:00 AM
Thu, May 13
4:00 AM
Thu, May 13
5:00 AM
Thu, May 13
6:00 AM
Thu, May 13
7:00 AM
Thu, May 13
8:00 AM
Thu, May 13
9:00 AM
Thu, May 13
10:00 AM
Thu, May 13
11:00 AM
Thu, May 13
12:00 PM
Thu, May 13
1:00 PM
Thu, May 13
2:00 PM
Thu, May 13
3:00 PM
Thu, May 13
4:00 PM
Thu, May 13
5:00 PM
Thu, May 13
6:00 PM
Thu, May 13
7:00 PM
Thu, May 13
8:00 PM
Condition
Clear

Clouds

Clouds

Clouds

Clouds

Clouds

Clouds

Clouds

Clouds

Clouds

Clouds

Clouds

Clouds

Clouds

Clouds

Clouds

Clouds

Clouds

Clouds

Clouds

Clouds

Clear

Clear

Clear

Clear

Clear

Clouds

Clouds

Clouds

Clouds

Clouds

Clouds

Clouds

Clouds

Clouds

Clouds

Clouds

Clouds

Clouds

Clouds

Clouds

Clouds

Clouds

Clouds

Clouds

Clouds

Clouds

Clouds
Temperature 50°F50°F50°F49°F49°F49°F48°F48°F48°F48°F50°F53°F57°F60°F61°F61°F61°F61°F61°F60°F59°F58°F57°F54°F51°F51°F50°F50°F50°F49°F49°F49°F49°F49°F50°F53°F56°F59°F60°F60°F60°F60°F59°F58°F56°F55°F54°F53°F
Feels Like 49°F49°F47°F46°F46°F45°F45°F45°F44°F44°F47°F52°F56°F58°F60°F60°F60°F60°F60°F59°F58°F57°F56°F53°F50°F50°F49°F47°F47°F46°F46°F46°F46°F45°F49°F52°F55°F58°F59°F59°F59°F59°F58°F57°F55°F54°F53°F52°F
Cloudiness 1%21%39%29%47%69%72%63%57%19%31%34%32%31%32%35%24%20%17%14%12%2%1%1%1%7%13%43%56%69%76%81%84%80%70%66%66%71%76%100%100%91%93%94%95%100%100%100%
Visibility 6 mi6 mi6 mi6 mi6 mi6 mi6 mi6 mi6 mi6 mi6 mi6 mi6 mi6 mi6 mi6 mi6 mi6 mi6 mi6 mi6 mi6 mi6 mi6 mi6 mi6 mi6 mi5 mi4 mi5 mi6 mi6 mi6 mi6 mi6 mi6 mi6 mi6 mi6 mi6 mi6 mi6 mi6 mi6 mi6 mi6 mi6 mi6 mi
Precipitation 0%0%0%0%0%0%0%0%0%0%0%0%0%0%0%0%0%0%0%0%0%0%0%0%0%0%0%0%0%0%0%0%0%0%0%0%0%0%0%0%0%0%0%0%0%0%0%0%
Humidity 87%89%90%92%93%94%94%94%94%94%91%83%73%68%67%67%69%70%70%71%73%75%80%90%96%96%97%97%97%97%96%95%95%95%94%90%81%73%70%71%71%71%73%78%80%83%88%92%
Dew Point 46°F47°F47°F47°F47°F46°F46°F46°F45°F45°F46°F48°F47°F48°F48°F49°F50°F50°F50°F50°F50°F49°F50°F50°F49°F49°F48°F48°F48°F48°F47°F47°F47°F47°F48°F49°F50°F49°F49°F49°F49°F49°F50°F50°F50°F49°F50°F50°F
Pressure 30.15"30.15"30.15"30.12"30.12"30.12"30.12"30.12"30.12"30.12"30.12"30.12"30.12"30.12"30.12"30.12"30.12"30.12"30.12"30.12"30.12"30.12"30.12"30.12"30.15"30.15"30.15"30.15"30.15"30.15"30.15"30.15"30.15"30.15"30.18"30.18"30.15"30.15"30.15"30.15"30.15"30.12"30.12"30.12"30.12"30.12"30.12"30.12"
Wind Speed 10.7 mph9.3 mph7.6 mph8 mph7.4 mph7.8 mph7.3 mph7.3 mph7.2 mph7.2 mph6.8 mph7.1 mph7.9 mph9.6 mph11 mph12.2 mph12.1 mph12.7 mph13.1 mph13.9 mph13.7 mph12.7 mph11.9 mph10.4 mph9.5 mph8.9 mph8.3 mph8.3 mph7.7 mph7.3 mph7.6 mph8.2 mph8.4 mph8 mph7.4 mph6.9 mph7.4 mph8.8 mph10.4 mph12.2 mph12.7 mph13.2 mph13.2 mph13 mph12.4 mph12 mph10.8 mph10.1 mph
Wind
Direction
354°
N

N
10°
N

N
10°
N

N
10°
N
12°
NNE
14°
NNE
15°
NNE
14°
NNE

N
354°
N
342°
NNW
339°
NNW
335°
NNW
334°
NNW
334°
NNW
336°
NNW
339°
NNW
341°
NNW
343°
NNW
345°
NNW
348°
NNW
353°
N
358°
N
356°
N
359°
N

N
13°
NNE

N

N

N

N

N

N
354°
N
342°
NNW
333°
NNW
334°
NNW
333°
NNW
335°
NNW
332°
NNW
336°
NNW
339°
NNW
341°
NNW
340°
NNW
342°
NNW

Daily Forecast

Date High Low Precip. Humidity
Today
May 11

Clear
61 °F
45 °F
0%
62%
Wednesday
May 12

Clouds
61 °F
48 °F
0%
69%
Thursday
May 13

Clouds
60 °F
49 °F
0%
71%
Friday
May 14

Clear
59 °F
49 °F
0%
69%
Saturday
May 15

Clear
60 °F
48 °F
0%
69%
Sunday
May 16

Clouds
60 °F
51 °F
0%
69%
Monday
May 17

Clouds
59 °F
49 °F
0%
66%
Tuesday
May 18

Rain
55 °F
46 °F
80%
82%
Wednesday
May 19

Rain
55 °F
43 °F
45%
60%
Thursday
May 20

Clouds
56 °F
42 °F
0%
55%
Friday
May 21

Rain
54 °F
46 °F
69%
86%
Saturday
May 22

Rain
55 °F
45 °F
60%
60%
Sunday
May 23

Rain
53 °F
47 °F
99%
83%
Monday
May 24

Rain
56 °F
48 °F
37%
66%
Tuesday
May 25

Clear
63 °F
46 °F
0%
63%
Wednesday
May 26

Clouds
60 °F
49 °F
0%
68%

Temperature 8-14 Day Outlook



Precipitation 8-14 Day Outlook




Quick Links
Waldport News
Waldport Photos
Waldport Videos




About Us
Contact Us
Site Map
Search Site
Advertise With Us
   
Waldport.USCoast.info
THE WALDPORT WEBSITE

Copyright 2021, Coastal Town
Privacy    |    Legal